Vorticity
nan nan nan nan nan nan nan nan nan nan nan nan nan nan nan nan nan nan nan nan nan nan nan nan nan nan nan nan nan nan nan nan nan nan nan nan nan nan nan nan nan nan nan nan nan
nan 5 5 6 6 6 5 6 6 6 6 7 7 6 6 13 16 9 3 2 4 8 11 7 7 13 12 6 9 8 5 6 6 6 6 2 4 5 4 5 6 9 10 7 nan
nan 5 5 6 5 6 6 6 6 6 6 7 7 6 9 17 11 4 4 3 4 8 10 9 8 11 7 6 7 8 3 4 6 5 5 5 6 5 6 5 6 3 3 5 nan
nan 6 6 6 5 6 6 6 7 6 7 6 6 7 15 15 10 8 4 4 5 7 9 11 11 10 9 7 5 6 6 2 4 3 5 5 5 7 7 6 3 5 5 5 nan
nan 7 6 5 5 6 6 6 6 6 7 6 7 10 18 10 9 7 5 3 5 6 8 9 9 8 7 6 10 10 1 3 4 5 7 8 8 9 6 14 10 10 10 9 nan
nan 6 7 7 6 6 6 7 7 7 6 6 7 13 15 11 6 6 5 5 6 7 5 8 8 9 9 6 7 6 5 6 10 13 10 13 9 15 17 13 11 10 10 9 nan
nan 8 8 6 7 7 7 7 8 7 10 13 10 13 9 10 7 6 7 6 6 7 7 7 7 5 9 10 8 6 8 16 16 8 7 16 17 11 10 11 7 7 8 9 nan
nan 8 6 6 7 7 8 7 6 11 18 17 10 7 10 8 6 10 7 6 7 7 8 7 7 10 5 8 9 12 8 5 11 8 6 9 4 4 9 9 3 5 7 5 nan
nan 6 6 7 6 7 8 8 16 16 13 10 6 7 10 8 8 8 8 7 8 7 7 7 6 8 6 7 13 6 -5 -0 10 14 2 -3 0 3 5 4 5 9 7 6 nan
nan 4 7 6 6 8 10 18 19 14 8 3 8 10 6 6 9 6 9 9 7 9 9 10 7 7 6 5 1 -1 5 7 7 -0 4 6 6 1 5 10 12 12 14 14 nan
nan 5 5 5 7 9 17 21 12 10 3 4 6 10 7 8 7 7 7 8 9 6 7 8 4 9 7 5 5 6 7 6 9 7 11 9 6 7 8 16 18 15 13 13 nan
nan 4 4 6 8 13 16 10 9 7 11 12 7 9 8 6 11 10 5 9 6 4 10 4 1 8 10 6 6 6 7 9 9 9 5 8 11 17 19 14 14 13 11 10 nan
nan 4 5 6 12 16 11 10 7 10 12 7 10 11 14 8 7 13 7 5 7 10 9 6 8 7 8 3 8 10 9 8 5 6 15 19 15 11 12 15 11 10 7 8 nan
nan 5 5 11 13 11 10 4 8 9 11 12 12 12 8 6 9 10 9 7 7 4 12 12 10 5 5 9 12 14 6 2 8 12 11 9 15 12 10 12 11 2 4 6 nan
nan 6 6 7 12 9 5 8 11 9 7 16 9 7 8 7 10 11 8 9 6 7 8 3 1 5 11 12 10 4 -0 6 19 17 11 10 12 1 6 13 11 2 3 3 nan
nan 6 5 7 7 7 7 10 9 10 14 10 8 7 8 10 6 6 8 5 7 14 11 6 5 15 10 5 8 8 7 17 24 18 9 15 4 -6 1 10 10 9 2 1 nan
nan 7 0 2 8 9 11 9 9 8 11 12 8 8 8 11 10 7 7 6 3 5 7 17 18 14 11 5 12 8 11 22 12 4 -3 0 10 11 6 6 12 5 3 7 nan
nan 5 5 6 8 9 9 10 8 9 8 9 13 9 10 9 8 6 6 13 13 2 5 10 15 16 4 1 7 12 15 7 2 0 6 14 12 4 11 16 8 -0 5 11 nan
nan 3 9 14 11 9 10 6 7 7 11 9 5 10 9 6 8 11 8 10 17 14 1 8 11 9 4 9 8 11 9 7 13 11 13 11 -3 5 13 9 3 11 13 13 nan
nan 8 12 13 9 11 13 9 1 5 8 9 9 6 6 9 6 6 9 13 11 12 3 4 9 11 11 15 10 -2 1 16 11 9 11 9 11 7 5 7 12 10 8 15 nan
nan 7 15 11 3 11 13 10 10 6 7 6 8 8 5 7 9 5 8 9 11 12 7 7 11 2 4 2 11 16 8 6 7 7 4 5 8 7 5 8 13 7 10 16 nan
nan 11 11 6 3 7 9 4 10 12 7 6 8 9 12 11 9 8 11 10 10 7 9 10 5 7 9 13 19 12 6 5 4 5 5 8 5 4 2 8 6 9 19 14 nan
nan 10 11 7 11 4 4 8 7 13 5 5 7 8 11 9 12 9 5 13 11 2 11 12 4 4 17 16 4 2 3 6 6 9 5 5 2 -3 5 7 8 17 18 13 nan
nan 9 10 6 7 13 15 12 10 10 7 7 6 9 9 9 4 4 6 5 11 7 6 8 10 6 -1 -7 -3 2 7 10 13 7 9 1 -3 1 12 10 11 17 17 16 nan
nan 11 10 12 8 7 10 15 10 8 13 9 13 11 2 2 7 6 8 10 10 12 6 6 9 9 4 6 11 12 9 10 13 7 4 3 6 13 14 13 13 16 19 15 nan
nan 12 6 10 16 15 6 6 12 4 5 8 4 9 8 4 1 6 14 12 11 11 7 6 6 10 17 20 12 13 20 17 12 12 11 11 7 13 9 12 14 17 15 12 nan
nan nan nan nan nan nan nan nan nan nan nan nan nan nan nan nan nan nan nan nan nan nan nan nan nan nan nan nan nan nan nan nan nan nan nan nan nan nan nan nan nan nan nan nan nan
CAPE
12 5 10 15 14 5 12 15 10 8 7 5 6 5 2 0 0 0 0 0 0 0 0 0 0 0 0 0 0 0 0 0 0 0 0 0 0 0 0 0 0 0 0 0 0
6 16 14 14 13 10 8 9 9 7 8 6 6 2 0 0 0 0 0 0 0 0 0 0 0 0 0 0 0 0 0 0 0 0 0 0 0 0 0 0 0 0 0 0 0
4 8 11 14 12 12 8 11 7 7 3 4 5 2 0 0 0 0 0 0 0 0 0 0 0 0 0 0 0 0 0 0 0 0 0 0 0 0 0 0 0 0 0 0 0
10 9 13 12 11 13 9 9 5 3 5 5 4 1 0 0 0 0 0 0 0 0 0 0 0 0 0 0 0 0 0 0 0 0 0 0 0 0 0 0 0 0 0 0 0
10 16 15 11 6 10 7 7 6 3 5 7 3 0 0 0 0 0 0 0 0 0 0 0 0 0 0 0 0 0 0 0 0 0 0 0 0 0 0 0 0 0 0 0 0
3 12 17 7 11 9 6 3 8 2 4 9 3 0 0 0 0 0 0 0 0 0 0 0 0 0 0 0 0 0 0 0 0 0 0 0 0 0 0 0 0 0 0 0 0
4 9 6 5 8 7 6 3 4 4 9 7 6 0 0 0 0 0 0 0 0 0 0 0 0 0 0 0 0 0 0 0 0 0 0 0 0 0 0 0 0 0 0 0 0
11 12 4 2 2 5 5 4 2 5 7 2 0 0 0 0 0 0 0 0 0 0 0 0 0 0 0 0 0 0 0 0 0 0 0 0 0 0 0 0 0 0 0 0 0
9 9 7 1 3 3 2 3 5 4 0 0 1 0 0 0 0 0 0 0 0 0 0 0 0 0 0 2 3 1 0 0 0 0 0 0 0 0 0 0 0 0 0 0 0
7 7 9 9 4 2 1 0 0 1 3 1 0 0 0 0 0 0 0 0 0 0 1 0 0 0 3 8 3 0 0 0 0 0 1 0 0 0 0 0 0 0 0 0 0
7 5 3 4 4 1 1 0 0 0 0 0 0 0 0 0 0 0 0 0 0 0 0 0 0 0 0 0 0 0 2 1 0 0 0 1 0 0 0 0 0 0 0 0 0
0 0 0 3 0 0 0 0 0 0 0 0 0 0 0 0 0 0 0 0 0 0 0 0 0 0 0 0 0 1 6 3 0 2 19 2 0 0 0 0 0 0 0 0 0
0 0 0 0 0 0 0 0 0 0 0 0 0 0 0 0 0 0 0 0 0 0 0 0 0 0 0 0 1 0 2 2 8 3 6 10 0 0 0 0 0 0 0 0 0
0 0 0 0 0 0 0 0 0 0 0 0 0 0 0 0 0 0 0 0 0 0 0 0 0 0 0 0 0 10 0 1 10 11 2 6 3 0 0 0 0 1 18 1 0
0 0 0 0 0 0 0 0 0 0 0 0 0 0 0 0 0 0 0 0 0 0 0 0 0 0 0 0 0 0 0 4 16 14 21 0 16 0 0 12 14 1 0 0 0
0 0 0 0 0 0 0 0 0 0 0 0 0 0 0 0 0 0 0 0 0 0 0 0 0 0 0 0 0 0 5 8 25 15 14 8 31 0 4 18 19 16 0 0 0
0 0 0 0 0 0 0 0 0 0 0 0 0 0 0 0 0 0 0 1 0 0 0 0 0 0 0 0 0 1 27 50 40 93 63 23 26 39 4 17 11 9 3 3 0
4 1 0 0 0 0 0 0 0 0 0 0 0 0 0 0 0 0 0 0 0 0 0 1 0 0 0 0 0 1 15 46 27 18 10 5 4 17 7 5 0 7 2 3 4
7 3 1 0 0 0 0 16 0 0 0 0 0 0 0 0 0 0 0 0 0 0 0 0 0 0 0 0 0 0 14 41 42 14 41 22 14 2 0 0 0 0 0 9 7
0 0 0 0 0 0 0 0 0 0 0 0 0 0 0 0 0 0 0 0 0 0 0 0 0 0 0 0 0 0 2 26 49 36 10 7 3 76 1 0 3 0 1 2 6
0 2 0 0 0 2 11 5 0 0 0 0 0 0 0 0 0 0 0 0 0 0 0 0 0 0 0 0 0 1 15 33 49 50 50 26 0 0 2 3 1 0 14 0 15
4 38 1 1 6 10 4 0 0 0 0 0 0 0 0 0 0 0 0 0 0 0 0 0 0 0 0 0 0 0 0 19 42 18 34 34 3 1 1 0 0 2 8 6 24
74 57 7 1 1 2 0 5 1 0 0 0 0 0 0 0 0 0 0 0 0 0 0 0 0 0 0 0 0 0 0 1 4 10 6 35 1 0 1 0 0 0 12 17 24
76 45 39 10 6 11 24 14 7 0 0 0 0 0 0 0 0 0 0 0 0 0 0 0 0 0 0 0 0 0 0 0 5 11 1 0 0 0 0 0 2 10 13 7 20
85 46 36 15 15 11 7 10 20 13 0 0 0 0 0 0 0 0 0 0 0 0 0 0 0 0 0 0 0 0 0 0 0 0 4 0 0 0 0 0 10 15 11 9 12
31 25 5 6 12 18 6 6 3 24 15 8 1 0 0 0 0 0 0 0 0 0 0 0 0 0 0 0 0 0 0 0 0 0 0 0 0 0 0 3 4 7 16 3 12
62 86 62 17 35 52 20 16 34 27 7 25 2 9 0 0 0 0 0 0 0 0 0 1 0 0 0 0 0 0 0 0 0 0 0 0 0 0 0 0 8 6 13 8 3